Regional Weather Roundup
Issued by NWS

Home | Current Version | Previous Version | Text Only | Print | Product List | Glossary On
Versions: 1 2 3 4 5 6 7 8 9 10 11 12 13 14 15 16 17 18 19 20 21 22 23 24 25 26 27 28 29 30 31 32 33 34 35 36 37 38 39 40 41 42 43 44 45 46 47 48 49 50
000
ASCA42 TJSJ 251711
RWRPR
PUERTO RICO/U.S. VIRGIN ISLANDS HOURLY WEATHER ROUNDUP
NATIONAL WEATHER SERVICE SAN JUAN PR
100 PM AST SUN JAN 25 2015

PRZ001-004-251800-
PUERTO RICO

CITY           SKY/WX    TMP DP  RH WIND       PRES   REMARKS
SAN JUAN LMM   MOSUNNY   84  72  65 NE17      30.00F
AGUADILLA      MOSUNNY   81  68  65 MISG      30.04F
CEIBA          PTSUNNY   82  70  65 SE12      30.04F
$$

PRZ006-007-251800-
U.S. VIRGIN ISLANDS

CITY           SKY/WX    TMP DP  RH WIND       PRES   REMARKS
$$

HOURLY WEATHER ROUNDUP FOR THE NEWS MEDIA

CITY           SKY/WX    TMP DP  RH WIND       PRES   REMARKS
MIAMI          MOSUNNY   63  41  44 NW8       30.10S
ORLANDO        SUNNY     58  34  40 N5        30.08F
NEW YORK       PTSUNNY   43  19  38 NW17G26   29.76R
NEWARK         PTSUNNY   41  16  36 NW23G31   29.77R
CHICAGO        LGT SNOW  31  28  89 NE20      29.79R FOG     WCI  19
HARTFORD       CLOUDY    39  26  59 W21       29.63S WCI  29
BOSTON         MOSUNNY   37  20  50 W17G28    29.62R WCI  27
DALLAS         MOSUNNY   59  34  39 NW16G29   30.04R
PHILADELPHIA   PTSUNNY   44  31  60 W14       29.83S



USA.gov is the U.S. government's official web portal to all federal, state and local government web resources and services.